| time (UTC) | temp F | wind direction | speed knots | gust knots | rain 1hr in | rain 24hr in | rain mn in | humidity % | barometer mb |
| 20260502170516 | 45 | 326 | 6.1 | 11.3 | 0.00 | 0.00 | 0.00 | 45 | 1017.2 |
| 20260502164017 | 44 | 307 | 8.7 | 12.2 | 0.00 | 0.00 | 0.00 | 45 | 1017.3 |
| 20260502163517 | 44 | 291 | 5.2 | 12.2 | 0.00 | 0.00 | 0.00 | 47 | 1017.3 |
| 20260502163017 | 44 | 303 | 7.8 | 13.0 | 0.00 | 0.00 | 0.00 | 47 | 1017.4 |
| 20260502162518 | 44 | 316 | 7.0 | 13.0 | 0.00 | 0.00 | 0.00 | 46 | 1017.4 |
| 20260502162038 | 44 | 322 | 7.0 | 12.2 | 0.00 | 0.00 | 0.00 | 46 | 1017.5 |
| 20260502161519 | 44 | 322 | 4.3 | 13.0 | 0.00 | 0.00 | 0.00 | 50 | 1017.5 |
| 20260502161017 | 44 | 309 | 7.8 | 13.0 | 0.00 | 0.00 | 0.00 | 49 | 1017.7 |
| 20260502160516 | 44 | 336 | 5.2 | 8.7 | 0.00 | 0.00 | 0.00 | 49 | 1017.5 |
| 20260502152017 | 42 | 285 | 6.1 | 11.3 | 0.00 | 0.00 | 0.00 | 50 | 1017.5 |
| 20260502151517 | 42 | 298 | 7.8 | 11.3 | 0.00 | 0.00 | 0.00 | 50 | 1017.6 |
| 20260502151117 | 42 | 282 | 7.0 | 10.4 | 0.00 | 0.00 | 0.00 | 52 | 1017.6 |
| 20260502150517 | 43 | 346 | 5.2 | 10.4 | 0.00 | 0.00 | 0.00 | 53 | 1017.6 |
| 20260502130516 | 39 | 3 | 6.1 | 10.4 | 0.00 | 0.00 | 0.00 | 73 | 1017.8 |
| 20260502123518 | 38 | 27 | 0.9 | 3.5 | 0.00 | 0.00 | 0.00 | 77 | 1017.8 |
| 20260502123018 | 38 | 27 | 1.7 | 3.5 | 0.00 | 0.00 | 0.00 | 78 | 1017.7 |
| 20260502122516 | 38 | 10 | 0.9 | 3.5 | 0.00 | 0.00 | 0.00 | 79 | 1017.7 |
| 20260502122037 | 37 | 22 | 0.0 | 4.3 | 0.00 | 0.00 | 0.00 | 79 | 1017.8 |
| 20260502121516 | 37 | 9 | 1.7 | 4.3 | 0.00 | 0.00 | 0.00 | 80 | 1017.7 |
| 20260502121016 | 37 | 5 | 1.7 | 4.3 | 0.00 | 0.00 | 0.00 | 82 | 1017.6 |
| 20260502120516 | 36 | 10 | 1.7 | 3.5 | 0.00 | 0.00 | 0.00 | 83 | 1017.6 |
| 20260502115516 | 34 | 0.0 | 0.0 | 0.00 | 0.00 | 0.00 | 87 | 1017.5 | |
| 20260502115038 | 34 | 0.0 | 0.0 | 0.00 | 0.00 | 0.00 | 87 | 1017.4 | |
| 20260502114518 | 33 | 0.0 | 0.0 | 0.00 | 0.00 | 0.00 | 87 | 1017.5 | |
| 20260502114016 | 33 | 0.0 | 0.0 | 0.00 | 0.00 | 0.00 | 86 | 1017.4 | |
| 20260502113518 | 32 | 0.0 | 0.0 | 0.00 | 0.00 | 0.00 | 87 | 1017.4 | |
| 20260502113016 | 32 | 0.0 | 0.0 | 0.00 | 0.00 | 0.00 | 86 | 1017.4 | |
| 20260502112538 | 32 | 0.0 | 0.0 | 0.00 | 0.00 | 0.00 | 87 | 1017.3 | |
| 20260502112016 | 31 | 0.0 | 0.0 | 0.00 | 0.00 | 0.00 | 86 | 1017.3 | |
| 20260502111516 | 31 | 0.0 | 0.0 | 0.00 | 0.00 | 0.00 | 86 | 1017.3 | |
| 20260502111036 | 31 | 0.0 | 0.0 | 0.00 | 0.00 | 0.00 | 85 | 1017.3 | |
| 20260502110536 | 30 | 0.0 | 0.0 | 0.00 | 0.00 | 0.00 | 85 | 1017.3 | |
| 20260502110016 | 30 | 0.0 | 0.0 | 0.00 | 0.00 | 0.00 | 85 | 1017.2 | |
| 20260502105516 | 31 | 0.0 | 0.0 | 0.00 | 0.00 | 0.00 | 84 | 1017.2 | |
| 20260502105016 | 31 | 0.0 | 0.0 | 0.00 | 0.00 | 0.00 | 84 | 1017.4 | |
| 20260502104556 | 31 | 0.0 | 0.0 | 0.00 | 0.00 | 0.00 | 83 | 1017.3 | |
| 20260502104017 | 31 | 0.0 | 0.0 | 0.00 | 0.00 | 0.00 | 82 | 1017.3 | |
| 20260502103516 | 31 | 0.0 | 0.0 | 0.00 | 0.00 | 0.00 | 81 | 1017.3 | |
| 20260502103016 | 31 | 0.0 | 0.0 | 0.00 | 0.00 | 0.00 | 81 | 1017.2 | |
| 20260502102516 | 32 | 0.0 | 0.0 | 0.00 | 0.00 | 0.00 | 80 | 1017.2 | |
| 20260502102016 | 32 | 0.0 | 0.0 | 0.00 | 0.00 | 0.00 | 80 | 1017.1 | |
| 20260502101516 | 32 | 0.0 | 0.0 | 0.00 | 0.00 | 0.00 | 80 | 1017.2 | |
| 20260502101016 | 32 | 0.0 | 0.0 | 0.00 | 0.00 | 0.00 | 80 | 1017.2 | |
| 20260502100516 | 32 | 0.0 | 0.0 | 0.00 | 0.00 | 0.00 | 80 | 1017.2 | |
| 20260502091516 | 34 | 0.0 | 0.0 | 0.00 | 0.00 | 0.00 | 76 | 1017.1 | |
| 20260502091016 | 34 | 0.0 | 0.0 | 0.00 | 0.00 | 0.00 | 76 | 1017.0 | |
| 20260502090516 | 34 | 0.0 | 0.0 | 0.00 | 0.00 | 0.00 | 76 | 1017.0 | |
| 20260502071516 | 35 | 292 | 1.7 | 3.5 | 0.00 | 0.00 | 0.00 | 77 | 1016.7 |
| 20260502071016 | 35 | 292 | 0.9 | 2.6 | 0.00 | 0.00 | 0.00 | 77 | 1016.7 |
| 20260502070516 | 35 | 301 | 0.9 | 2.6 | 0.00 | 0.00 | 0.00 | 77 | 1016.6 |
| 20260502070016 | 35 | 287 | 0.9 | 3.5 | 0.00 | 0.00 | 0.00 | 77 | 1016.7 |
| 20260502065516 | 35 | 279 | 1.7 | 3.5 | 0.00 | 0.00 | 0.00 | 77 | 1016.7 |
| 20260502065016 | 35 | 288 | 0.9 | 3.5 | 0.00 | 0.00 | 0.00 | 78 | 1016.8 |
| 20260502064515 | 35 | 291 | 1.7 | 3.5 | 0.00 | 0.00 | 0.00 | 78 | 1016.9 |
| 20260502064016 | 35 | 285 | 1.7 | 3.5 | 0.00 | 0.00 | 0.00 | 80 | 1016.8 |
| 20260502063536 | 34 | 0.0 | 0.0 | 0.00 | 0.00 | 0.00 | 80 | 1016.8 | |
| 20260502063016 | 34 | 0.0 | 0.0 | 0.00 | 0.00 | 0.00 | 80 | 1016.8 | |
| 20260502062516 | 34 | 0.0 | 0.0 | 0.00 | 0.00 | 0.00 | 80 | 1016.8 | |
| 20260502062015 | 34 | 0.0 | 0.0 | 0.00 | 0.00 | 0.00 | 79 | 1016.8 | |
| 20260502061515 | 34 | 0.0 | 0.0 | 0.00 | 0.00 | 0.00 | 79 | 1016.9 | |
| 20260502061016 | 34 | 0.0 | 0.0 | 0.00 | 0.00 | 0.00 | 78 | 1017.0 | |
| 20260502060515 | 34 | 0.0 | 0.0 | 0.00 | 0.00 | 0.00 | 77 | 1016.9 | |
| 20260502060015 | 34 | 0.0 | 0.0 | 0.00 | 0.00 | 0.00 | 77 | 1017.0 | |
| 20260502055515 | 34 | 0.0 | 0.0 | 0.00 | 0.00 | 0.00 | 77 | 1017.0 | |
| 20260502055017 | 35 | 0.0 | 0.0 | 0.00 | 0.00 | 0.00 | 77 | 1016.9 | |
| 20260502054515 | 35 | 0.0 | 0.0 | 0.00 | 0.00 | 0.00 | 75 | 1017.0 | |
| 20260502054015 | 35 | 0.0 | 0.0 | 0.00 | 0.00 | 0.00 | 75 | 1017.1 | |
| 20260502053537 | 35 | 0.0 | 0.0 | 0.00 | 0.00 | 0.00 | 74 | 1017.1 | |
| 20260502053017 | 35 | 0.0 | 0.0 | 0.00 | 0.00 | 0.00 | 73 | 1017.0 | |
| 20260502052516 | 35 | 0.0 | 0.0 | 0.00 | 0.00 | 0.00 | 72 | 1016.9 | |
| 20260502052015 | 35 | 0.0 | 0.9 | 0.00 | 0.00 | 0.00 | 72 | 1017.0 | |
| 20260502051515 | 35 | 282 | 0.0 | 1.7 | 0.00 | 0.00 | 0.00 | 71 | 1017.0 |
| 20260502051016 | 35 | 282 | 0.9 | 1.7 | 0.00 | 0.00 | 0.00 | 70 | 1017.0 |
| 20260502050516 | 35 | 282 | 0.0 | 1.7 | 0.00 | 0.00 | 0.00 | 70 | 1017.0 |
| 20260502050016 | 35 | 282 | 0.0 | 0.9 | 0.00 | 0.00 | 0.00 | 69 | 1016.9 |
| 20260502045537 | 35 | 282 | 0.0 | 1.7 | 0.00 | 0.00 | 0.00 | 69 | 1016.9 |
| 20260502045016 | 36 | 282 | 0.9 | 1.7 | 0.00 | 0.00 | 0.00 | 69 | 1016.9 |
| 20260502044517 | 36 | 292 | 0.9 | 1.7 | 0.00 | 0.00 | 0.00 | 68 | 1016.9 |
| 20260502044016 | 36 | 305 | 0.0 | 1.7 | 0.00 | 0.00 | 0.00 | 68 | 1016.8 |
| 20260502043515 | 36 | 305 | 0.0 | 1.7 | 0.00 | 0.00 | 0.00 | 68 | 1016.8 |
| 20260502043015 | 36 | 306 | 0.0 | 1.7 | 0.00 | 0.00 | 0.00 | 68 | 1016.7 |
| 20260502042536 | 36 | 305 | 0.9 | 2.6 | 0.00 | 0.00 | 0.00 | 68 | 1016.7 |
| 20260502042015 | 36 | 294 | 0.9 | 2.6 | 0.00 | 0.00 | 0.00 | 67 | 1016.8 |
| 20260502041517 | 36 | 289 | 0.9 | 2.6 | 0.00 | 0.00 | 0.00 | 67 | 1016.8 |
| 20260502041015 | 36 | 288 | 0.9 | 2.6 | 0.00 | 0.00 | 0.00 | 67 | 1016.8 |
| 20260502040515 | 36 | 288 | 1.7 | 3.5 | 0.00 | 0.00 | 0.00 | 67 | 1016.7 |
| 20260502040015 | 36 | 278 | 1.7 | 3.5 | 0.00 | 0.00 | 0.00 | 66 | 1016.7 |
| 20260502035516 | 36 | 287 | 1.7 | 4.3 | 0.00 | 0.00 | 0.00 | 65 | 1016.7 |
| 20260502035016 | 36 | 300 | 1.7 | 4.3 | 0.00 | 0.00 | 0.00 | 65 | 1016.7 |
| 20260502034516 | 36 | 291 | 1.7 | 2.6 | 0.00 | 0.00 | 0.00 | 65 | 1016.7 |
| 20260502034017 | 36 | 300 | 0.9 | 1.7 | 0.00 | 0.00 | 0.00 | 64 | 1016.8 |
| 20260502033516 | 36 | 301 | 0.9 | 3.5 | 0.00 | 0.00 | 0.00 | 63 | 1016.8 |
| 20260502033016 | 37 | 303 | 1.7 | 3.5 | 0.00 | 0.00 | 0.00 | 63 | 1016.7 |
| 20260502032517 | 37 | 312 | 1.7 | 5.2 | 0.00 | 0.00 | 0.00 | 62 | 1016.7 |
| 20260502032056 | 37 | 306 | 2.6 | 5.2 | 0.00 | 0.00 | 0.00 | 62 | 1016.6 |
| 20260502031516 | 37 | 325 | 2.6 | 4.3 | 0.00 | 0.00 | 0.00 | 61 | 1016.6 |
| 20260502031016 | 37 | 324 | 2.6 | 5.2 | 0.00 | 0.00 | 0.00 | 61 | 1016.5 |
| 20260502030536 | 37 | 320 | 2.6 | 5.2 | 0.00 | 0.00 | 0.00 | 61 | 1016.4 |
| 20260502030016 | 37 | 314 | 1.7 | 4.3 | 0.00 | 0.00 | 0.00 | 60 | 1016.4 |
| 20260502025516 | 37 | 319 | 2.6 | 5.2 | 0.00 | 0.00 | 0.00 | 60 | 1016.4 |
| 20260502025037 | 37 | 325 | 2.6 | 6.1 | 0.00 | 0.00 | 0.00 | 60 | 1016.5 |
| 20260502024516 | 37 | 318 | 3.5 | 7.8 | 0.00 | 0.00 | 0.00 | 61 | 1016.4 |
| 20260502024016 | 37 | 328 | 3.5 | 7.8 | 0.00 | 0.00 | 0.00 | 61 | 1016.3 |
| 20260502023515 | 37 | 324 | 4.3 | 7.8 | 0.00 | 0.00 | 0.00 | 62 | 1016.3 |
| 20260502023036 | 37 | 318 | 3.5 | 6.1 | 0.00 | 0.00 | 0.00 | 64 | 1016.2 |
| 20260502022516 | 37 | 315 | 3.5 | 7.0 | 0.00 | 0.00 | 0.00 | 66 | 1016.2 |
| 20260502022016 | 38 | 301 | 3.5 | 7.0 | 0.00 | 0.00 | 0.00 | 66 | 1016.2 |
| 20260502021515 | 38 | 296 | 3.5 | 6.1 | 0.00 | 0.00 | 0.00 | 67 | 1016.3 |
| 20260502021016 | 38 | 283 | 3.5 | 7.0 | 0.00 | 0.00 | 0.00 | 67 | 1016.2 |
| 20260502020516 | 38 | 279 | 4.3 | 7.8 | 0.00 | 0.00 | 0.00 | 67 | 1016.1 |
| 20260502020016 | 38 | 282 | 4.3 | 7.8 | 0.00 | 0.00 | 0.00 | 67 | 1015.9 |
| 20260502015516 | 38 | 286 | 4.3 | 7.0 | 0.00 | 0.00 | 0.00 | 67 | 1015.9 |
| 20260502015056 | 38 | 291 | 4.3 | 7.0 | 0.00 | 0.00 | 0.00 | 66 | 1015.8 |
| 20260502014516 | 38 | 306 | 3.5 | 8.7 | 0.00 | 0.00 | 0.00 | 67 | 1015.8 |
| 20260502014016 | 38 | 308 | 5.2 | 8.7 | 0.00 | 0.00 | 0.00 | 66 | 1015.8 |
| 20260502013515 | 38 | 304 | 3.5 | 9.6 | 0.00 | 0.00 | 0.00 | 66 | 1015.7 |
| 20260502013036 | 38 | 304 | 6.1 | 11.3 | 0.00 | 0.00 | 0.00 | 66 | 1015.7 |
| 20260502012517 | 39 | 301 | 6.1 | 11.3 | 0.00 | 0.00 | 0.00 | 66 | 1015.7 |
| 20260502012037 | 39 | 297 | 5.2 | 9.6 | 0.00 | 0.00 | 0.00 | 65 | 1015.7 |
| 20260502011536 | 39 | 283 | 5.2 | 9.6 | 0.00 | 0.00 | 0.00 | 64 | 1015.5 |
| 20260502011015 | 39 | 302 | 4.3 | 7.8 | 0.00 | 0.00 | 0.00 | 64 | 1015.5 |
| 20260502010516 | 39 | 293 | 4.3 | 8.7 | 0.00 | 0.00 | 0.00 | 62 | 1015.5 |
| 20260502010017 | 39 | 299 | 4.3 | 9.6 | 0.00 | 0.00 | 0.00 | 61 | 1015.4 |
| 20260502005515 | 39 | 289 | 5.2 | 9.6 | 0.00 | 0.00 | 0.00 | 60 | 1015.4 |
| 20260502005015 | 39 | 283 | 3.5 | 7.8 | 0.00 | 0.00 | 0.00 | 58 | 1015.3 |
| 20260502004516 | 39 | 298 | 4.3 | 7.8 | 0.00 | 0.00 | 0.00 | 56 | 1015.3 |
| 20260502004015 | 39 | 301 | 4.3 | 7.8 | 0.00 | 0.00 | 0.00 | 55 | 1015.3 |
| 20260502003535 | 39 | 309 | 3.5 | 7.8 | 0.00 | 0.00 | 0.00 | 55 | 1015.4 |
| 20260502003016 | 39 | 300 | 4.3 | 11.3 | 0.00 | 0.00 | 0.00 | 54 | 1015.3 |
| 20260502002515 | 39 | 311 | 7.0 | 11.3 | 0.00 | 0.00 | 0.00 | 53 | 1015.4 |
| 20260502002016 | 39 | 305 | 6.1 | 10.4 | 0.00 | 0.00 | 0.00 | 52 | 1015.4 |
| 20260502001517 | 39 | 303 | 6.1 | 12.2 | 0.00 | 0.00 | 0.00 | 51 | 1015.4 |
| 20260502001037 | 39 | 297 | 8.7 | 12.2 | 0.00 | 0.00 | 0.00 | 50 | 1015.3 |
| 20260502000536 | 39 | 300 | 7.0 | 11.3 | 0.00 | 0.00 | 0.00 | 50 | 1015.3 |
| 20260502000015 | 40 | 299 | 6.1 | 15.6 | 0.00 | 0.00 | 0.00 | 49 | 1015.2 |
| 20260501235515 | 40 | 300 | 10.4 | 15.6 | 0.00 | 0.00 | 0.00 | 47 | 1015.2 |
| 20260501235015 | 40 | 318 | 7.0 | 14.8 | 0.00 | 0.00 | 0.00 | 47 | 1015.2 |
| 20260501234535 | 40 | 316 | 7.0 | 13.9 | 0.00 | 0.00 | 0.00 | 47 | 1015.2 |
| 20260501234017 | 41 | 312 | 7.8 | 13.9 | 0.00 | 0.00 | 0.00 | 47 | 1015.2 |
| 20260501233535 | 41 | 317 | 9.6 | 14.8 | 0.00 | 0.00 | 0.00 | 47 | 1015.1 |
| 20260501233036 | 42 | 314 | 8.7 | 18.2 | 0.00 | 0.00 | 0.00 | 46 | 1015.1 |
| 20260501232517 | 42 | 315 | 11.3 | 18.2 | 0.00 | 0.00 | 0.00 | 46 | 1015.1 |
| 20260501232015 | 43 | 293 | 9.6 | 14.8 | 0.00 | 0.00 | 0.00 | 46 | 1015.0 |
| 20260501231515 | 43 | 301 | 8.7 | 13.9 | 0.00 | 0.00 | 0.00 | 45 | 1014.9 |
| 20260501231015 | 43 | 314 | 10.4 | 15.6 | 0.00 | 0.00 | 0.00 | 44 | 1015.0 |
| 20260501230538 | 44 | 304 | 9.6 | 15.6 | 0.00 | 0.00 | 0.00 | 43 | 1014.9 |
| 20260501230016 | 44 | 323 | 7.0 | 13.9 | 0.00 | 0.00 | 0.00 | 43 | 1014.9 |
| 20260501225535 | 44 | 312 | 7.8 | 13.9 | 0.00 | 0.00 | 0.00 | 43 | 1014.8 |
| 20260501225016 | 44 | 297 | 7.8 | 14.8 | 0.00 | 0.00 | 0.00 | 43 | 1014.8 |
| 20260501224515 | 44 | 312 | 9.6 | 14.8 | 0.00 | 0.00 | 0.00 | 42 | 1014.8 |
| 20260501224016 | 44 | 302 | 8.7 | 13.0 | 0.00 | 0.00 | 0.00 | 43 | 1014.8 |
| 20260501223535 | 44 | 308 | 7.8 | 16.5 | 0.00 | 0.00 | 0.00 | 43 | 1014.8 |
| 20260501223035 | 45 | 317 | 9.6 | 16.5 | 0.00 | 0.00 | 0.00 | 45 | 1014.8 |
| 20260501222515 | 45 | 326 | 7.8 | 14.8 | 0.00 | 0.00 | 0.00 | 44 | 1014.8 |
| 20260501222036 | 45 | 330 | 9.6 | 14.8 | 0.00 | 0.00 | 0.00 | 44 | 1014.7 |
| 20260501221515 | 45 | 319 | 9.6 | 13.9 | 0.00 | 0.00 | 0.00 | 44 | 1014.7 |
| 20260501221016 | 45 | 313 | 7.8 | 16.5 | 0.00 | 0.00 | 0.00 | 46 | 1014.7 |
| 20260501220555 | 44 | 332 | 9.6 | 18.2 | 0.00 | 0.00 | 0.00 | 46 | 1014.7 |
| 20260501215515 | 45 | 301 | 8.7 | 15.6 | 0.00 | 0.00 | 0.00 | 51 | 1014.7 |
| 20260501214515 | 44 | 293 | 10.4 | 17.4 | 0.00 | 0.00 | 0.00 | 50 | 1014.6 |
| 20260501214015 | 45 | 283 | 9.6 | 17.4 | 0.00 | 0.00 | 0.00 | 48 | 1014.5 |
| 20260501213515 | 45 | 284 | 7.8 | 14.8 | 0.00 | 0.00 | 0.00 | 48 | 1014.6 |
| 20260501213036 | 45 | 284 | 8.7 | 15.6 | 0.00 | 0.00 | 0.00 | 51 | 1014.6 |
| 20260501212516 | 45 | 294 | 9.6 | 15.6 | 0.00 | 0.00 | 0.00 | 48 | 1014.5 |
| 20260501212015 | 45 | 299 | 10.4 | 14.8 | 0.00 | 0.00 | 0.00 | 50 | 1014.5 |
| 20260501211515 | 45 | 278 | 9.6 | 16.5 | 0.00 | 0.00 | 0.00 | 51 | 1014.5 |
| 20260501211015 | 45 | 284 | 9.6 | 16.5 | 0.00 | 0.00 | 0.00 | 49 | 1014.4 |
| 20260501210616 | 45 | 276 | 10.4 | 16.5 | 0.00 | 0.00 | 0.00 | 50 | 1014.4 |
| 20260501210015 | 45 | 291 | 9.6 | 16.5 | 0.00 | 0.00 | 0.00 | 52 | 1014.4 |
| 20260501205515 | 46 | 284 | 11.3 | 16.5 | 0.00 | 0.00 | 0.00 | 50 | 1014.2 |
| 20260501205016 | 46 | 283 | 10.4 | 19.1 | 0.00 | 0.00 | 0.00 | 50 | 1014.3 |
| 20260501204536 | 46 | 270 | 13.0 | 19.1 | 0.00 | 0.00 | 0.00 | 51 | 1014.3 |
| 20260501204035 | 46 | 278 | 10.4 | 17.4 | 0.00 | 0.00 | 0.00 | 54 | 1014.2 |
| 20260501203516 | 45 | 279 | 8.7 | 17.4 | 0.00 | 0.00 | 0.00 | 52 | 1014.3 |
| 20260501203015 | 45 | 298 | 7.8 | 13.0 | 0.00 | 0.00 | 0.00 | 50 | 1014.3 |
| 20260501202515 | 45 | 302 | 9.6 | 14.8 | 0.00 | 0.00 | 0.00 | 49 | 1014.3 |
| 20260501202015 | 45 | 297 | 9.6 | 14.8 | 0.00 | 0.00 | 0.00 | 49 | 1014.4 |
| 20260501201517 | 46 | 295 | 8.7 | 18.2 | 0.00 | 0.00 | 0.00 | 49 | 1014.3 |
| 20260501201038 | 46 | 317 | 8.7 | 18.2 | 0.00 | 0.00 | 0.00 | 52 | 1014.3 |
| 20260501200518 | 45 | 335 | 8.7 | 12.2 | 0.00 | 0.00 | 0.00 | 55 | 1014.3 |
| 20260501200018 | 45 | 311 | 7.8 | 12.2 | 0.00 | 0.00 | 0.00 | 56 | 1014.3 |
| 20260501195537 | 45 | 293 | 7.8 | 13.0 | 0.00 | 0.00 | 0.00 | 56 | 1014.2 |
| 20260501195017 | 45 | 301 | 7.8 | 13.0 | 0.00 | 0.00 | 0.00 | 56 | 1014.2 |
| 20260501194517 | 45 | 324 | 8.7 | 12.2 | 0.00 | 0.00 | 0.00 | 58 | 1014.2 |
| 20260501194138 | 45 | 320 | 7.8 | 12.2 | 0.00 | 0.00 | 0.00 | 56 | 1014.2 |
| 20260501193538 | 45 | 298 | 7.0 | 11.3 | 0.00 | 0.00 | 0.00 | 58 | 1014.1 |
| 20260501193017 | 45 | 354 | 8.7 | 15.6 | 0.00 | 0.00 | 0.00 | 59 | 1014.1 |
| 20260501192518 | 45 | 330 | 6.1 | 15.6 | 0.00 | 0.00 | 0.00 | 60 | 1014.1 |
| 20260501192039 | 44 | 321 | 7.8 | 14.8 | 0.00 | 0.00 | 0.00 | 59 | 1014.1 |
| 20260501191517 | 44 | 344 | 7.8 | 12.2 | 0.00 | 0.00 | 0.00 | 63 | 1014.1 |
| 20260501191017 | 44 | 292 | 7.8 | 15.6 | 0.00 | 0.00 | 0.00 | 62 | 1014.1 |
| 20260501190518 | 44 | 297 | 7.8 | 15.6 | 0.00 | 0.00 | 0.00 | 61 | 1014.0 |
| 20260501190017 | 44 | 306 | 6.1 | 9.6 | 0.00 | 0.00 | 0.00 | 61 | 1013.9 |
| 20260501185518 | 43 | 281 | 4.3 | 8.7 | 0.00 | 0.00 | 0.00 | 60 | 1013.8 |
| 20260501185017 | 43 | 303 | 5.2 | 8.7 | 0.00 | 0.00 | 0.00 | 61 | 1013.9 |
| 20260501184518 | 43 | 324 | 5.2 | 8.7 | 0.00 | 0.00 | 0.00 | 61 | 1013.9 |
| 20260501184017 | 43 | 338 | 4.3 | 10.4 | 0.00 | 0.00 | 0.00 | 62 | 1013.8 |
| 20260501183538 | 43 | 345 | 6.1 | 10.4 | 0.00 | 0.00 | 0.00 | 61 | 1013.8 |
| 20260501183018 | 43 | 315 | 6.1 | 9.6 | 0.00 | 0.00 | 0.00 | 59 | 1013.7 |
| 20260501182517 | 43 | 311 | 6.1 | 9.6 | 0.00 | 0.00 | 0.00 | 61 | 1013.7 |
| 20260501182038 | 43 | 313 | 5.2 | 9.6 | 0.00 | 0.00 | 0.00 | 61 | 1013.8 |
| 20260501181517 | 43 | 322 | 3.5 | 9.6 | 0.00 | 0.00 | 0.00 | 62 | 1013.8 |
| 20260501181017 | 43 | 315 | 5.2 | 10.4 | 0.00 | 0.00 | 0.00 | 62 | 1013.8 |
| 20260501180517 | 43 | 322 | 7.0 | 13.0 | 0.00 | 0.00 | 0.00 | 61 | 1013.8 |
| 20260501180018 | 43 | 304 | 7.0 | 13.0 | 0.00 | 0.00 | 0.00 | 60 | 1013.8 |